Location: Borotín
(49.5055°N, 14.6142°E)
Time: 07:08:02
(UTC+00:00)

Cosmos 2297 - Pass Details

Date: 27 May 2022
Orbit: 834 x 859 km, 71.0° (Epoch: 28 June)

Event Time Altitude Azimuth Distance (km) Brightness Sun altitude
Rises 01:12:08 0° 328° (NNW) 3,447 7.2 -13.3°
Reaches altitude 10° 01:14:38 10° 324° (NW) 2,506 6.4 -13.1°
Maximum altitude 01:20:14 54° 249° (WSW) 1,038 3.9 -12.6°
Drops below altitude 10° 01:25:47 10° 173° (S) 2,485 5.7 -12.1°
Enters shadow 01:26:51 - 171° (S) 2,881 6.0 -12.0°
